User: anonymous   Login
Location: Poughquag
(41.6090°N, 73.6820°W)
Time: 07:31:47
(UTC-04:00)
Language:

deb Explorer IX - Orbit

View from above orbital plane
View from above orbital plane
View from above satellite
View from above satellite

Ground track
Ground track

The orbit data is extracted from the following two-line orbital elements,

1    85U 61004C   20149.26946011 +.00002156 +00000-0 +48720-3 0  9997
2    85 038.7695 124.0201 0385180 006.3155 354.2262 14.20572281928227
Epoch (UTC): 28 May 2020 06:28:01
Eccentricity: 0.0385180
inclination: 38.7695°
perigee height: 546 km
apogee height: 1101 km
right ascension of ascending node: 124.0201°
argument of perigee: 6.3155°
revolutions per day: 14.20572281
mean anomaly at epoch: 354.2262°
orbit number at epoch: 92822

The dashed part of the orbit path shows where the satellite is in the earth's shadow,  

DLR